Theta_e
313 313 313 312 312 311 311 311 311 312 311 311 311 308 310 309 303 297 294 303 305 311 306 294 296 297 300 300 302 304 295 291 293 294 296 295 298 304 306 304 309 318 319 321 323
312 312 312 312 312 311 310 311 311 311 311 311 309 307 308 309 290 290 304 311 311 310 292 290 290 294 294 296 296 296 293 291 295 291 291 293 296 301 301 302 303 305 315 325 323
312 312 312 311 311 311 310 311 311 311 312 312 308 310 310 296 285 286 307 310 311 305 292 291 291 296 291 292 292 291 292 290 291 292 292 293 295 299 299 299 303 302 306 319 318
311 311 311 310 310 311 311 310 311 311 312 312 311 306 304 289 276 289 307 308 308 298 292 289 286 287 284 286 290 285 289 289 290 292 291 290 296 295 298 300 308 309 310 318 320
311 311 311 310 309 310 310 310 310 310 311 311 312 306 291 284 285 296 305 300 295 293 289 287 285 282 280 283 286 284 285 287 289 289 288 292 289 292 296 302 307 309 310 319 321
310 311 311 309 309 309 310 310 309 310 311 311 309 304 287 279 293 295 294 294 293 291 289 288 286 286 283 282 282 285 286 285 285 285 285 285 285 295 297 291 293 302 307 313 320
310 310 310 309 309 308 309 309 308 310 312 309 304 294 286 284 294 294 293 292 293 291 289 290 290 286 284 281 286 286 282 281 282 284 284 286 283 287 288 289 288 291 298 305 320
310 310 310 308 308 307 307 308 307 308 310 305 301 288 282 293 295 293 292 292 293 292 291 292 291 286 283 283 281 277 277 273 280 282 283 283 276 283 287 286 286 288 290 294 302
309 310 309 308 307 306 306 307 307 305 303 300 289 284 280 295 289 292 290 289 291 290 290 292 288 282 282 274 272 274 269 272 275 281 281 281 276 282 286 285 284 286 288 291 293
310 310 309 308 307 305 303 304 302 299 295 290 290 282 284 284 288 291 291 291 287 286 285 284 281 277 276 274 267 271 270 273 272 277 280 278 277 281 284 283 283 285 286 289 291
310 310 309 308 307 304 294 287 284 283 287 282 283 282 285 289 291 289 291 288 286 282 276 279 276 273 274 276 275 273 271 270 274 280 278 277 277 280 282 282 282 282 284 287 290
309 309 308 308 305 302 292 287 286 286 280 286 286 287 288 287 283 286 291 283 281 276 278 275 273 277 280 279 277 275 273 271 276 280 279 277 276 280 281 280 282 282 283 287 292
309 309 308 306 303 294 290 289 294 290 279 281 285 284 284 287 282 282 287 283 279 277 276 272 275 280 279 277 278 274 273 273 274 278 278 274 272 274 279 281 282 285 289 290 291
309 308 307 304 294 290 287 293 293 288 270 278 280 282 285 285 279 286 287 283 279 276 276 274 277 278 278 277 278 275 277 277 276 275 267 275 265 272 276 279 280 283 286 287 288
309 307 305 301 291 288 291 292 291 286 266 279 280 288 285 281 281 281 286 283 278 278 276 274 275 276 276 278 280 276 279 277 277 273 271 270 267 271 277 276 278 281 284 286 286
308 305 304 296 291 290 292 290 286 274 266 272 279 279 279 281 280 281 281 285 282 278 277 276 279 278 278 280 280 279 276 275 273 271 261 268 268 269 272 276 278 281 282 286 284
305 304 298 295 289 291 290 284 275 270 274 270 271 279 278 277 278 278 278 277 274 268 266 273 275 276 279 276 277 277 270 262 261 260 262 269 269 271 277 279 279 281 283 283 283
304 300 297 294 292 290 285 277 268 266 265 277 277 276 275 276 276 276 275 271 277 272 265 265 268 275 278 276 273 275 271 264 258 262 265 273 268 272 278 281 280 281 281 282 282
302 292 291 292 293 286 279 269 273 270 276 275 275 269 264 274 273 273 270 269 275 273 266 262 268 275 278 277 276 273 265 273 265 267 265 268 271 276 279 277 278 279 280 279 280
291 289 288 292 288 282 273 275 270 278 278 276 272 272 264 263 269 268 266 271 275 278 272 270 264 275 277 277 276 275 277 266 264 255 256 266 268 269 275 276 277 277 278 279 281
290 281 288 291 285 277 269 268 271 279 280 276 274 268 270 267 266 262 265 270 275 276 276 266 267 271 273 269 272 273 269 268 266 267 262 263 267 274 274 276 276 277 277 280 281
287 276 287 287 274 266 266 268 280 278 279 279 277 276 274 272 266 267 265 271 278 279 274 274 267 267 268 274 276 275 272 272 263 262 267 268 267 277 277 277 276 278 281 281 282
280 277 287 285 270 265 266 274 278 277 278 276 276 278 276 274 268 272 273 278 278 279 274 274 265 261 267 269 271 266 274 275 272 271 265 264 266 276 276 276 280 279 280 282 282
281 277 282 278 273 270 268 270 271 279 278 279 277 278 276 274 275 267 274 279 280 280 284 281 268 266 266 268 264 263 264 273 268 266 267 268 270 275 277 277 279 280 281 282 282
284 277 277 275 275 270 272 274 273 273 275 279 277 276 273 268 273 273 275 276 279 282 281 274 265 267 272 273 272 271 271 271 270 271 268 271 271 274 277 278 279 280 280 281 281
283 277 276 268 271 273 273 273 275 275 275 273 274 277 275 271 274 273 276 275 275 276 277 274 265 264 263 272 272 269 271 271 272 272 272 272 272 278 280 280 278 280 280 281 282
288 284 284 277 272 272 273 276 276 278 278 279 278 277 275 277 277 277 278 277 276 275 275 271 266 261 260 269 268 265 267 269 271 273 272 268 274 278 277 278 279 280 280 281 282
Wind_Speed
20 20 20 21 20 19 18 18 18 19 18 16 12 12 7 3 10 21 20 15 18 24 21 12 7 7 2 4 4 2 4 1 3 2 5 12 12 9 8 6 5 1 4 4 6
19 19 19 20 19 18 18 17 17 20 21 20 16 13 7 1 5 17 19 24 23 22 9 9 9 10 5 6 5 6 3 2 4 3 4 10 5 9 8 10 8 9 4 4 5
17 18 19 18 18 18 17 15 16 19 20 21 18 16 11 3 6 7 25 28 25 19 5 4 5 3 7 5 7 5 3 3 4 6 8 8 8 5 5 7 7 8 11 3 3
17 18 19 17 16 16 15 15 16 17 18 19 22 16 11 5 7 8 27 25 19 10 8 10 9 6 6 6 5 4 9 7 8 9 9 12 7 9 8 9 14 18 9 4 9
16 17 18 18 18 17 16 16 17 16 15 15 16 16 9 8 5 10 23 17 7 8 8 6 9 4 5 2 3 6 5 8 11 12 15 11 13 16 10 13 20 16 11 10 11
18 19 18 18 19 19 16 15 14 12 11 11 12 10 6 12 6 9 12 8 7 6 9 10 6 3 5 3 6 3 4 8 5 11 10 19 17 6 9 20 23 22 18 14 12
16 16 17 18 19 19 17 12 12 11 10 9 8 4 11 8 6 9 6 4 6 3 5 5 6 7 2 3 4 3 4 8 7 8 7 20 7 5 18 24 21 21 22 17 11
14 15 17 18 19 20 16 11 10 7 8 6 10 6 6 1 7 12 11 7 8 5 3 5 6 4 5 4 7 7 7 7 9 10 8 8 6 19 22 23 25 21 17 19 19
13 15 17 18 19 20 14 6 8 2 6 7 7 6 3 8 9 8 5 5 7 5 7 4 6 5 10 5 5 8 2 4 10 7 7 10 15 14 18 20 21 20 18 17 18
12 14 15 16 18 18 7 2 4 6 7 4 4 6 7 8 7 8 6 3 4 5 6 10 7 4 5 8 6 6 4 6 8 7 6 17 18 22 17 17 21 17 15 15 17
12 13 15 17 15 16 5 5 8 7 11 5 1 2 4 9 4 9 6 8 7 10 5 6 10 10 6 5 3 3 3 6 6 9 12 8 23 23 19 18 18 11 18 16 17
10 11 13 15 8 16 4 7 2 2 4 3 2 3 2 2 5 9 8 8 9 6 7 6 7 5 4 3 2 1 3 6 12 9 7 16 31 23 16 12 11 21 18 10 10
9 10 12 11 6 7 6 4 2 1 5 4 2 2 4 4 2 7 6 4 6 8 7 5 1 5 4 5 8 3 2 5 10 14 11 8 11 6 10 10 8 9 10 10 10
9 10 12 9 6 1 4 5 2 1 8 5 2 2 2 1 2 3 4 3 5 2 2 1 2 5 5 4 4 5 2 9 14 13 7 8 10 7 8 15 7 7 9 13 13
5 7 9 12 4 5 3 4 3 4 6 1 5 3 5 5 5 1 4 4 2 3 2 4 4 5 3 2 2 7 10 11 9 8 5 4 2 11 11 11 6 10 11 10 12
3 5 4 5 4 1 3 4 4 10 7 3 4 5 3 5 7 8 6 6 1 0 3 2 2 3 2 2 1 8 8 7 3 3 3 4 3 8 5 6 11 11 11 8 12
7 9 6 2 2 2 2 4 8 6 4 5 1 4 2 4 4 7 5 7 4 7 8 7 1 2 1 4 3 9 6 6 9 8 7 1 6 14 15 13 7 14 8 7 8
6 6 5 3 2 3 4 8 4 3 7 1 2 3 3 4 1 6 3 3 1 4 4 4 8 4 4 4 2 4 3 5 4 5 10 14 9 10 8 14 9 7 6 8 8
8 2 2 2 2 3 7 5 9 8 6 7 3 5 6 2 1 1 1 4 3 4 5 4 6 3 1 1 4 1 3 3 1 3 4 5 7 13 8 8 8 8 7 9 9
3 2 1 5 1 5 8 6 4 1 4 2 6 3 4 5 1 4 2 3 2 2 1 3 5 1 2 0 1 3 3 3 3 4 8 8 9 11 12 14 11 11 12 13 13
3 3 1 3 3 7 5 9 4 4 1 4 5 3 4 4 3 2 5 5 3 1 4 4 4 5 4 2 7 3 1 3 3 5 4 8 13 9 10 9 12 13 10 16 18
4 2 3 2 4 1 5 8 2 3 1 0 3 3 7 7 4 2 5 6 6 7 4 4 4 6 9 4 2 3 6 5 6 5 4 4 17 6 9 9 7 14 20 20 17
3 2 2 3 4 3 5 3 3 4 5 4 5 3 1 6 1 3 4 3 7 6 7 6 1 6 6 6 5 3 5 3 2 2 8 4 15 6 3 8 18 17 19 19 18
5 2 2 3 2 7 4 5 4 3 2 3 4 4 3 4 3 4 4 3 7 6 5 7 4 8 9 7 5 2 5 8 7 5 5 20 28 35 26 21 21 23 22 21 20
3 6 4 5 6 5 3 5 5 6 2 5 2 6 8 4 3 5 5 2 5 8 5 5 6 6 18 13 12 22 22 17 20 23 13 22 16 26 24 23 25 23 23 22 22
7 6 2 2 1 9 6 8 12 6 10 6 7 10 8 9 11 10 7 5 6 3 7 2 5 1 7 8 12 16 16 17 20 20 25 30 33 33 28 20 18 18 20 23 23
3 2 4 5 5 6 8 9 15 10 9 6 11 7 10 17 7 2 2 1 3 9 8 6 3 4 8 4 11 10 11 11 5 9 8 11 20 17 14 13 15 20 19 19 22
Wind_Direction
31 28 28 25 22 25 27 31 35 28 22 19 26 15 332 329 22 44 42 353 344 337 336 313 343 344 56 72 38 107 69 178 290 321 297 352 360 330 325 307 333 307 215 242 124
29 24 24 25 19 23 24 28 33 33 24 19 27 5 353 18 33 39 358 352 346 343 348 345 345 343 45 17 21 74 117 21 51 353 329 318 328 321 336 322 301 308 300 358 138
26 22 21 20 20 25 22 20 28 32 23 24 30 39 63 26 55 337 344 342 341 347 336 302 308 26 58 21 7 347 98 343 317 322 333 298 297 317 340 316 258 298 312 314 203
21 19 16 14 18 23 26 19 19 22 14 15 26 21 34 36 64 302 336 336 342 339 11 5 10 51 70 62 343 52 26 17 307 319 320 309 284 294 228 249 290 297 280 248 209
20 17 12 7 11 18 18 17 12 13 9 8 8 24 42 43 47 293 326 329 355 5 14 16 37 34 72 57 53 63 338 328 330 345 327 317 322 290 275 276 284 293 292 255 225
17 12 4 4 6 11 13 12 2 2 10 10 26 24 79 65 267 304 317 333 17 17 4 22 18 24 88 65 64 311 327 317 0 353 325 348 320 312 8 349 342 333 313 287 243
14 6 0 2 3 2 3 360 352 354 9 32 44 85 50 43 317 314 354 320 333 13 15 4 354 56 337 46 323 339 49 342 358 343 325 342 3 53 338 339 333 329 321 320 285
12 5 3 359 358 354 349 335 334 354 359 51 38 65 70 304 303 4 349 346 2 23 11 352 22 68 43 325 19 31 59 3 306 341 337 38 314 330 329 330 318 317 309 309 303
6 1 359 357 352 346 339 307 345 26 8 27 39 70 4 333 3 334 36 336 305 349 21 36 61 78 359 54 35 20 336 328 306 316 319 29 309 307 310 305 304 303 305 295 297
2 358 355 352 348 346 325 272 327 15 6 36 65 43 18 319 308 325 316 359 14 331 23 29 50 83 33 33 36 315 357 297 281 305 339 317 294 303 299 298 290 291 293 297 284
355 354 352 347 348 350 10 18 17 351 39 86 47 102 312 300 324 334 344 347 18 49 39 355 50 31 352 48 157 212 230 290 270 307 327 320 293 292 298 293 294 296 304 298 285
350 352 350 347 358 4 59 79 163 197 64 36 17 355 297 338 345 334 11 48 33 20 351 26 47 311 305 39 39 32 334 308 288 294 314 310 299 295 286 283 300 304 299 311 342
344 351 352 353 11 33 58 55 335 110 88 340 17 350 308 27 336 300 31 47 31 28 6 55 314 328 29 12 7 319 257 305 289 317 292 341 278 329 298 302 324 325 318 356 351
343 353 0 334 54 298 44 320 328 68 72 289 6 7 3 46 3 307 23 97 34 23 280 190 324 10 23 36 20 317 348 311 310 331 314 59 289 295 304 321 307 313 341 345 347
342 360 41 42 137 53 308 330 337 52 31 287 321 316 354 48 330 27 335 36 153 277 159 242 19 24 40 353 6 265 321 297 304 301 355 2 337 278 320 316 312 319 339 337 336
38 24 53 29 48 18 341 15 30 43 258 315 323 350 16 27 346 316 5 37 358 204 335 283 285 158 209 300 74 309 322 329 28 12 0 239 68 282 283 271 310 310 316 329 340
95 64 59 43 108 358 51 41 35 130 346 279 187 37 81 338 347 18 23 9 24 21 358 327 5 315 45 357 45 26 26 348 359 6 255 316 349 256 288 295 271 295 292 336 330
117 88 49 77 90 104 57 48 90 222 224 319 155 88 165 13 27 339 57 17 356 73 76 46 332 18 4 88 337 2 78 125 287 302 289 300 228 258 243 297 294 277 301 322 324
121 34 33 350 117 86 69 58 213 203 160 148 82 62 320 357 218 345 78 210 248 157 125 80 280 328 11 109 119 357 44 173 224 289 286 264 282 288 275 292 320 301 307 299 293
92 78 60 319 106 66 78 248 245 227 123 135 166 138 197 260 48 63 27 225 263 348 103 235 329 62 284 81 7 161 157 39 20 348 295 284 279 249 298 304 313 318 315 312 308
51 40 261 343 23 52 163 220 247 254 302 158 194 140 206 212 163 228 224 277 204 38 65 130 100 288 25 184 165 132 94 83 128 156 242 306 281 224 253 278 292 298 292 299 305
112 345 306 69 61 346 164 187 229 179 354 214 126 142 181 163 162 220 229 222 178 158 159 202 154 273 236 262 336 148 203 154 127 257 227 265 264 251 260 274 281 299 308 304 299
171 190 298 110 162 246 300 248 197 177 199 166 187 177 164 179 36 190 215 232 174 171 166 188 290 326 352 359 351 165 194 216 82 132 202 234 262 216 234 297 305 302 302 298 297
114 174 300 55 123 140 162 236 204 173 178 156 153 90 127 183 174 203 233 234 189 207 185 149 176 193 214 222 134 252 199 193 163 237 235 237 275 286 294 303 306 306 301 298 296
139 222 169 191 233 176 165 162 148 187 197 195 209 199 167 153 174 225 205 241 193 213 187 150 225 205 255 273 268 260 258 238 226 231 236 263 265 272 289 295 295 297 297 303 306
156 153 154 168 146 141 189 213 182 183 150 224 210 187 183 173 186 190 166 195 205 137 162 180 266 127 261 265 254 265 253 242 241 241 249 256 268 270 277 281 284 291 304 308 306
129 83 139 163 157 137 210 198 201 140 216 177 194 131 194 233 189 127 157 165 169 166 184 166 164 24 273 344 310 285 232 174 200 198 204 211 241 271 289 290 293 306 305 306 306